Location: Lugrin
(46.4033°N, 6.6674°E)
Time: 01:36:51
(UTC+00:00)

OBJECT-B - Pass Details

Date: 18 September 2020
Orbit: 421 x 433 km, 97.0° (Epoch: 09 October)

Event Time Altitude Azimuth Distance (km) Brightness Sun altitude
Exits shadow 20:34:37 16° 286° (WNW) 1,184 3.7 -29.0°
Drops below altitude 10° 20:36:07 10° 312° (NW) 1,518 4.5 -29.2°
Sets 20:38:36 0° 332° (NNW) 2,392 5.6 -29.5°
